Location: Lango�lan
(48.1202°N, 3.2340°W)
Time: 16:33:34
(UTC+00:00)

Cosmos 1908 - Pass Details

Date: 23 October 2019
Orbit: 511 x 532 km, 82.5° (Epoch: 11 November)

Event Time Altitude Azimuth Distance (km) Brightness Sun altitude
Rises 05:46:21 0° 340° (NNW) 2,647 6.6 -10.2°
Reaches altitude 10° 05:48:41 10° 329° (NNW) 1,751 5.5 -9.8°
Maximum altitude 05:52:00 28° 270° (W) 979 4.0 -9.3°
Drops below altitude 10° 05:55:18 10° 209° (SSW) 1,732 5.6 -8.7°
Sets 05:57:36 0° 198° (SSW) 2,611 6.7 -8.4°
